Weather History for K36U - May, 2013

Change the Weather History Date:

Saturday, May 18, 2013

  Actual Average (KPVU) Record (KPVU)
Temperature  
Mean Temperature 50 °F -  
Max Temperature 59 °F 70 °F 86 °F (1992)
Min Temperature 37 °F 44 °F 37 °F (1983)
Degree Days  
Heating Degree Days 15    
Moisture  
Dew Point 39 °F    
Average Humidity 69    
Maximum Humidity 93    
Minimum Humidity 38    
Precipitation  
Precipitation 0.00 in - - ()
Sea Level Pressure  
Sea Level Pressure 30.03 in    
Wind  
Wind Speed 3 mph (SW)    
Max Wind Speed 14 mph    
Max Gust Speed 20 mph    
Visibility 10 miles    
Events Rain , Thunderstorm    
Averages and records for this station are not official NWS values.
T = Trace of Precipitation, MM = Missing Value Source: NWS Daily Summary

Daily Weather History Graph

Daily Weather History Graph

Search for Another Location

Airport or City:

Trip Planner

Search our weather history database for the weather conditions in past years. The results will help you decide how hot, cold, wet, or windy it might be!

Date:

Astronomy

May. 18, 2013 Rise Set
Actual Time 6:06 AM MDT 8:38 PM MDT
Civil Twilight 5:35 AM MDT 9:09 PM MDT
Nautical Twilight 4:56 AM MDT 9:48 PM MDT
Astronomical Twilight 4:12 AM MDT 10:32 PM MDT
Moon 1:44 PM MDT (5/18) 2:02 AM MDT (5/18)
Length of Visible Light 15h 34m
Length of Day
14h 32m
First Quarter, 56% of the Moon is Illuminated
May 18
First Quarter
May 24
Full
May 31
Last Quarter
Jun 8
New
Jun 16
First Quarter

Hourly Weather History & Observations

Time (MDT) Temp. Windchill Dew Point Humidity Pressure Visibility Wind Dir Wind Speed Gust Speed Precip Events Conditions
12:15 AM 46.4 °F - 41.0 °F 81% 29.98 in 5.0 mi Calm Calm - N/A Rain Light Rain
12:35 AM 46.4 °F - 42.8 °F 87% 29.99 in 10.0 mi Calm Calm - N/A   Mostly Cloudy
12:55 AM 46.4 °F - 42.8 °F 87% 29.99 in 10.0 mi Calm Calm - N/A   Mostly Cloudy
1:15 AM 46.4 °F - 42.8 °F 87% 29.99 in 10.0 mi Calm Calm - N/A   Overcast
1:35 AM 46.4 °F 45.2 °F 42.8 °F 87% 29.99 in 10.0 mi WSW 3.5 mph - N/A   Light Drizzle
1:55 AM 46.4 °F 44.3 °F 42.8 °F 87% 29.98 in 10.0 mi WSW 4.6 mph - N/A   Drizzle
2:15 AM 46.4 °F 42.9 °F 42.8 °F 87% 29.98 in 10.0 mi West 6.9 mph - N/A   Overcast
2:35 AM 46.4 °F 42.4 °F 41.0 °F 81% 29.98 in 10.0 mi SSW 8.1 mph - N/A   Mostly Cloudy
2:55 AM 46.4 °F 45.2 °F 39.2 °F 76% 29.98 in 10.0 mi West 3.5 mph - N/A   Mostly Cloudy
3:15 AM 46.4 °F 45.2 °F 41.0 °F 81% 29.99 in 10.0 mi SSW 3.5 mph - N/A   Overcast
3:35 AM 46.4 °F - 41.0 °F 81% 29.99 in 10.0 mi Calm Calm - N/A   Overcast
3:55 AM 46.4 °F 42.4 °F 41.0 °F 81% 29.99 in 7.0 mi WSW 8.1 mph - N/A   Drizzle
4:15 AM 46.4 °F 44.3 °F 42.8 °F 87% 29.99 in 7.0 mi WSW 4.6 mph - N/A   Light Drizzle
4:35 AM 46.4 °F 45.2 °F 41.0 °F 81% 29.99 in 10.0 mi SW 3.5 mph - N/A   Light Drizzle
4:55 AM 46.4 °F - 41.0 °F 81% 29.99 in 10.0 mi Calm Calm - N/A   Drizzle
5:15 AM 46.4 °F - 41.0 °F 81% 29.99 in 10.0 mi Calm Calm - N/A   Light Drizzle
5:35 AM 46.4 °F 45.2 °F 42.8 °F 87% 29.99 in 10.0 mi NNE 3.5 mph - N/A   Overcast
5:55 AM 44.6 °F - 42.8 °F 93% 29.99 in 10.0 mi Calm Calm - N/A   Scattered Clouds
6:15 AM 44.6 °F - 41.0 °F 87% 30.00 in 10.0 mi Calm Calm - N/A   Mostly Cloudy
6:35 AM 46.4 °F 43.5 °F 41.0 °F 81% 29.99 in 10.0 mi SSW 5.8 mph - N/A   Overcast
6:55 AM 46.4 °F 41.9 °F 41.0 °F 81% 30.00 in 10.0 mi SSW 9.2 mph - N/A   Overcast
7:15 AM 44.6 °F 42.2 °F 39.2 °F 81% 30.01 in 10.0 mi SW 4.6 mph - N/A   Mostly Cloudy
7:35 AM 46.4 °F - 41.0 °F 81% 30.02 in 10.0 mi Calm Calm - N/A   Mostly Cloudy
7:55 AM 46.4 °F 42.4 °F 39.2 °F 76% 30.02 in 4.0 mi South 8.1 mph 16.1 mph N/A   Heavy Drizzle
8:15 AM 46.4 °F 45.2 °F 41.0 °F 81% 30.03 in 10.0 mi SSW 3.5 mph - N/A   Overcast
8:35 AM 48.2 °F - 41.0 °F 76% 30.02 in 10.0 mi SSW 9.2 mph - N/A   Mostly Cloudy
8:55 AM 50.0 °F - 41.0 °F 71% 30.03 in 10.0 mi SW 6.9 mph - N/A   Mostly Cloudy
9:15 AM 51.8 °F - 42.8 °F 71% 30.03 in 10.0 mi SW 13.8 mph 19.6 mph N/A   Scattered Clouds
9:35 AM 51.8 °F - 41.0 °F 67% 30.03 in 10.0 mi SW 10.4 mph 17.3 mph N/A   Scattered Clouds
9:55 AM 50.0 °F - 41.0 °F 71% 30.04 in 10.0 mi NNW 6.9 mph 16.1 mph N/A Rain Rain
10:15 AM 44.6 °F - 41.0 °F 87% 30.05 in 2.0 mi Calm Calm - N/A Rain Light Rain
10:35 AM 46.4 °F 45.2 °F 41.0 °F 81% 30.05 in 7.0 mi South 3.5 mph - N/A Rain Light Rain
10:55 AM 48.2 °F - 39.2 °F 71% 30.05 in 10.0 mi Calm Calm - N/A   Overcast
11:15 AM 51.8 °F - 41.0 °F 67% 30.05 in 10.0 mi Calm Calm - N/A   Mostly Cloudy
11:35 AM 51.8 °F - 39.2 °F 62% 30.05 in 10.0 mi Calm Calm - N/A   Overcast
11:55 AM 51.8 °F - 41.0 °F 67% 30.05 in 10.0 mi Calm Calm - N/A   Overcast
12:15 PM 51.8 °F - 37.4 °F 58% 30.04 in 10.0 mi Calm Calm - N/A   Mostly Cloudy
12:35 PM 51.8 °F - 39.2 °F 62% 30.04 in 10.0 mi Calm Calm - N/A   Mostly Cloudy
1:15 PM 53.6 °F - 42.8 °F 67% 30.04 in 10.0 mi East 10.4 mph - N/A   Scattered Clouds
1:35 PM 51.8 °F - 41.0 °F 67% 30.04 in 10.0 mi ENE 12.7 mph 17.3 mph N/A   Mostly Cloudy
1:55 PM 50.0 °F - 41.0 °F 71% 30.04 in 10.0 mi East 11.5 mph - N/A Rain Light Rain
2:15 PM 53.6 °F - 44.6 °F 72% 30.05 in 10.0 mi East 12.7 mph - N/A   Overcast
2:35 PM 51.8 °F - 42.8 °F 71% 30.05 in 10.0 mi SE 9.2 mph - N/A   Overcast
2:55 PM 55.4 °F - 42.8 °F 63% 30.04 in 10.0 mi SSE 5.8 mph - N/A   Mostly Cloudy
3:15 PM 57.2 °F - 39.2 °F 51% 30.04 in 10.0 mi ESE 5.8 mph - N/A   Mostly Cloudy
3:35 PM 55.4 °F - 37.4 °F 51% 30.04 in 10.0 mi Calm Calm - N/A   Overcast
4:15 PM 59.0 °F - 35.6 °F 42% 30.03 in 10.0 mi Calm Calm - N/A   Scattered Clouds
4:35 PM 55.4 °F - 32.0 °F 41% 30.03 in 10.0 mi Calm Calm - N/A   Mostly Cloudy
4:55 PM 55.4 °F - 32.0 °F 41% 30.03 in 10.0 mi Calm Calm - N/A   Mostly Cloudy
5:15 PM 55.4 °F - 32.0 °F 41% 30.03 in 10.0 mi Calm Calm - N/A   Mostly Cloudy
5:35 PM 55.4 °F - 32.0 °F 41% 30.03 in 10.0 mi Calm Calm - N/A   Scattered Clouds
5:55 PM 55.4 °F - 30.2 °F 38% 30.03 in 10.0 mi NNW 6.9 mph 10.4 mph N/A   Scattered Clouds
6:15 PM 55.4 °F - 32.0 °F 41% 30.04 in 10.0 mi NW 10.4 mph 17.3 mph N/A Thunderstorm Mostly Cloudy
6:35 PM 57.2 °F - 32.0 °F 38% 30.04 in 10.0 mi WSW 11.5 mph 17.3 mph N/A   Overcast
6:55 PM 55.4 °F - 32.0 °F 41% 30.04 in 10.0 mi WSW 9.2 mph - N/A   Mostly Cloudy
7:15 PM 51.8 °F - 33.8 °F 50% 30.05 in 10.0 mi SW 6.9 mph - N/A   Scattered Clouds
7:35 PM 51.8 °F - 32.0 °F 47% 30.04 in 10.0 mi Calm Calm - N/A   Clear
7:55 PM 51.8 °F - 32.0 °F 47% 30.05 in 10.0 mi North 6.9 mph - N/A   Clear
8:15 PM 50.0 °F - 35.6 °F 58% 30.05 in 10.0 mi NNE 8.1 mph - N/A   Clear
8:35 PM 50.0 °F - 35.6 °F 58% 30.05 in 10.0 mi North 6.9 mph - N/A   Scattered Clouds
8:55 PM 46.4 °F 45.2 °F 35.6 °F 66% 30.05 in 10.0 mi North 3.5 mph - N/A   Scattered Clouds
9:15 PM 46.4 °F 45.2 °F 35.6 °F 66% 30.05 in 10.0 mi ESE 3.5 mph - N/A   Clear
9:35 PM 46.4 °F - 33.8 °F 62% 30.05 in 10.0 mi Calm Calm - N/A   Clear
9:55 PM 44.6 °F - 33.8 °F 66% 30.05 in 10.0 mi Calm Calm - N/A   Clear
10:15 PM 41.0 °F - 35.6 °F 81% 30.06 in 10.0 mi Calm Calm - N/A   Scattered Clouds
10:35 PM 41.0 °F 39.0 °F 35.6 °F 81% 30.06 in 10.0 mi SE 3.5 mph - N/A   Scattered Clouds
10:55 PM 41.0 °F - 33.8 °F 76% 30.05 in 10.0 mi Calm Calm - N/A   Clear
11:15 PM 41.0 °F - 33.8 °F 76% 30.06 in 10.0 mi Calm Calm - N/A   Clear
11:35 PM 37.4 °F - 33.8 °F 87% 30.05 in 10.0 mi Calm Calm - N/A   Scattered Clouds